Temp
62 67 74 76 77 77 77 76 76 76 77 77 77 77 77 76 76 76 76 76 77 78 78 78 77 77 76 76 76 76 76 75 75 75 75 76 77 78 78 76 75 75 77
64 68 73 75 76 76 76 76 76 76 77 77 77 76 76 76 76 76 75 75 76 77 77 77 76 75 75 75 75 75 75 74 74 73 74 74 75 77 79 76 75 75 77
65 68 70 73 75 75 75 75 75 76 76 76 75 76 76 75 75 74 73 74 74 75 76 75 74 73 73 74 74 74 74 74 73 73 73 70 72 79 79 77 76 77 77
65 66 67 72 74 74 74 74 75 76 76 77 75 74 74 73 73 72 72 72 73 74 74 73 73 72 71 72 72 73 73 72 71 70 68 70 73 78 80 78 77 76 75
63 64 66 71 73 73 73 73 75 74 73 73 73 73 73 72 72 71 71 71 71 72 72 72 71 71 70 71 71 71 71 70 69 68 67 67 68 76 79 77 76 75 74
61 63 68 71 73 72 72 73 73 73 73 72 72 72 71 71 70 70 70 70 70 70 71 70 70 69 69 69 69 70 69 69 67 62 64 67 68 75 78 77 75 74 73
59 61 64 70 71 72 72 72 72 72 71 71 71 70 70 69 69 69 69 69 69 69 69 69 68 68 68 69 69 69 68 66 61 58 60 63 66 73 76 78 76 75 75
58 59 62 67 69 70 71 71 71 71 70 70 69 69 68 68 67 67 68 67 68 68 68 68 68 68 68 68 67 66 65 64 59 56 58 61 68 73 76 77 76 75 75
57 57 57 59 63 67 68 69 69 70 69 68 68 68 67 66 65 65 66 66 67 68 68 67 67 66 66 66 65 64 63 62 53 56 61 60 68 73 75 75 75 75 75
54 55 54 55 56 56 58 65 66 67 67 67 66 65 64 63 63 62 62 65 67 67 66 66 65 64 63 63 63 62 61 59 53 54 56 60 67 71 73 73 74 73 73
54 54 52 52 53 53 54 58 62 64 64 64 62 62 57 51 52 54 61 63 64 64 64 64 63 61 59 59 60 60 58 52 52 52 54 63 66 69 71 71 72 72 73
52 52 53 52 51 50 57 53 52 54 52 51 51 51 50 49 49 53 56 60 59 60 61 61 60 57 53 48 48 53 49 50 49 50 53 62 64 67 68 69 70 71 71
56 54 53 53 51 50 53 48 47 47 47 47 48 48 48 49 47 46 45 45 45 50 45 47 46 46 47 46 47 47 48 47 46 48 52 59 62 65 67 68 69 70 70
52 54 54 53 52 49 48 48 47 47 45 45 46 47 45 44 44 43 43 43 42 42 42 42 42 45 45 46 46 46 46 46 45 47 48 55 59 63 65 67 68 68 69
52 54 53 53 53 52 49 47 46 45 46 45 45 46 45 43 42 42 42 41 41 42 41 41 42 43 43 44 45 45 45 45 46 46 45 53 57 60 63 65 66 68 68
56 54 54 53 53 52 49 48 48 46 45 44 43 44 45 43 42 42 41 41 40 41 40 41 41 41 41 42 43 44 44 44 45 45 46 46 55 58 60 63 65 66 67
56 56 53 54 52 52 51 49 47 46 46 44 43 43 44 43 42 41 40 39 40 40 41 40 40 40 40 42 41 42 43 43 44 45 45 46 47 53 57 61 63 64 65
56 54 54 57 52 52 52 49 48 46 45 43 42 42 43 43 42 40 39 39 39 39 39 39 38 38 38 38 38 39 40 41 43 43 44 45 45 47 51 57 61 62 63
57 55 53 54 52 51 49 49 46 44 44 43 41 40 42 42 42 39 38 38 39 38 38 39 37 37 36 37 39 40 39 39 40 44 43 44 45 46 46 52 56 56 60
57 55 55 54 52 50 48 43 41 42 40 42 40 40 41 40 41 38 37 38 38 37 36 37 37 36 36 36 40 40 38 38 39 39 41 45 43 45 46 47 46 48 56
54 53 52 51 50 50 47 44 43 44 41 38 39 41 40 40 39 38 37 37 37 36 36 37 36 35 34 35 35 35 36 38 39 40 39 40 43 44 45 45 44 45 47
53 52 51 51 49 51 51 50 46 44 38 42 40 41 41 39 38 38 36 36 36 35 35 35 35 33 33 34 32 31 31 35 38 41 39 41 40 41 42 45 45 45 45
49 49 50 51 50 51 50 45 39 38 37 36 37 38 38 38 37 38 36 35 34 34 33 34 33 34 32 32 33 33 31 30 30 36 38 38 39 39 39 41 43 44 44
49 49 50 50 50 50 48 45 42 46 43 42 42 38 36 37 37 36 36 35 34 33 33 33 34 32 32 31 32 35 32 31 29 28 33 36 36 38 38 37 39 40 43
46 47 49 48 49 48 46 47 44 44 45 37 35 35 36 34 36 35 35 34 33 32 33 33 32 32 32 31 30 30 30 29 29 28 27 30 35 36 37 36 36 38 40
43 45 46 46 46 44 45 45 44 44 38 37 36 37 36 35 34 34 34 32 32 32 32 32 32 31 31 30 30 30 30 28 28 27 25 27 28 32 35 36 35 35 37
MSLP
1018.28 1017.91 1017.83 1017.96 1017.95 1017.94 1018.07 1018.12 1018.28 1018.37 1018.41 1018.48 1018.53 1018.59 1018.68 1018.82 1018.85 1018.94 1018.85 1018.88 1018.70 1018.63 1018.60 1018.72 1018.85 1018.82 1018.81 1018.85 1018.84 1018.76 1018.70 1018.73 1018.71 1018.60 1018.40 1018.24 1018.05 1017.85 1017.85 1018.03 1017.99 1018.01 1017.92
1017.57 1017.73 1017.77 1017.76 1017.87 1017.89 1018.02 1018.04 1018.19 1018.33 1018.38 1018.46 1018.57 1018.64 1018.71 1018.77 1018.87 1019.01 1019.08 1019.08 1018.85 1018.91 1018.92 1019.03 1019.12 1019.19 1019.05 1019.06 1018.84 1018.74 1018.73 1018.75 1018.78 1018.73 1018.54 1018.26 1018.09 1017.95 1017.78 1018.05 1018.02 1017.99 1017.90
1017.30 1017.51 1017.75 1017.80 1017.84 1017.90 1017.95 1018.01 1018.16 1018.24 1018.42 1018.53 1018.63 1018.73 1018.88 1018.99 1019.10 1019.20 1019.37 1019.28 1019.08 1019.11 1019.15 1019.25 1019.49 1019.61 1019.50 1019.39 1019.16 1018.95 1018.95 1018.90 1018.87 1018.81 1018.67 1018.49 1018.26 1017.98 1017.98 1018.07 1018.08 1017.95 1017.93
1017.13 1017.38 1017.53 1017.67 1017.77 1017.82 1017.89 1018.04 1018.18 1018.27 1018.35 1018.44 1018.75 1019.10 1019.24 1019.37 1019.48 1019.61 1019.75 1019.84 1019.83 1019.74 1019.60 1019.72 1019.87 1019.86 1019.86 1019.74 1019.65 1019.41 1019.35 1019.28 1019.14 1019.03 1018.93 1018.75 1018.48 1018.13 1017.99 1018.01 1018.13 1018.17 1018.13
1017.28 1017.39 1017.51 1017.59 1017.60 1017.83 1017.96 1018.11 1018.25 1018.45 1018.62 1018.79 1018.98 1019.24 1019.40 1019.59 1019.84 1020.01 1020.08 1020.10 1020.19 1020.06 1019.99 1020.22 1020.19 1020.20 1020.17 1020.05 1019.97 1019.76 1019.66 1019.56 1019.44 1019.25 1019.16 1018.95 1018.81 1018.46 1018.14 1018.13 1018.14 1018.13 1018.15
1017.32 1017.44 1017.53 1017.58 1017.69 1017.81 1018.03 1018.19 1018.48 1018.69 1018.82 1019.12 1019.37 1019.46 1019.73 1019.96 1020.12 1020.22 1020.18 1020.23 1020.26 1020.22 1020.34 1020.46 1020.41 1020.41 1020.35 1020.30 1020.29 1020.13 1020.06 1019.93 1019.80 1019.63 1019.49 1019.13 1018.92 1018.50 1018.27 1018.21 1018.25 1018.23 1018.24
1017.40 1017.48 1017.53 1017.62 1017.73 1017.87 1018.01 1018.16 1018.57 1018.67 1018.97 1019.25 1019.52 1019.69 1019.92 1020.13 1020.25 1020.35 1020.41 1020.42 1020.38 1020.34 1020.47 1020.58 1020.67 1020.56 1020.57 1020.39 1020.31 1020.28 1020.26 1020.11 1020.11 1019.98 1019.76 1019.55 1019.19 1018.71 1018.38 1018.07 1018.16 1018.23 1018.23
1017.34 1017.56 1017.65 1017.71 1017.85 1017.95 1018.06 1018.30 1018.51 1018.61 1018.94 1019.33 1019.60 1019.65 1019.87 1020.09 1020.42 1020.55 1020.51 1020.52 1020.60 1020.71 1020.74 1020.70 1020.68 1020.71 1020.76 1020.60 1020.61 1020.63 1020.57 1020.35 1020.25 1020.21 1020.01 1019.70 1019.33 1018.81 1018.28 1018.09 1017.96 1018.03 1018.13
1017.31 1017.60 1017.80 1017.90 1018.01 1018.11 1018.21 1018.35 1018.50 1018.73 1019.06 1019.38 1019.60 1019.81 1020.03 1020.41 1020.72 1020.82 1020.83 1020.84 1020.80 1020.77 1020.68 1020.70 1020.81 1020.95 1020.97 1020.90 1020.80 1020.66 1020.72 1020.65 1020.65 1020.49 1020.19 1020.00 1019.47 1018.92 1018.47 1018.30 1018.16 1017.99 1018.01
1017.57 1017.72 1017.94 1018.11 1018.21 1018.28 1018.27 1018.36 1018.57 1018.86 1019.14 1019.44 1019.73 1019.94 1020.25 1020.46 1020.73 1020.93 1020.93 1020.89 1020.79 1020.71 1020.76 1020.86 1021.03 1021.14 1021.12 1021.09 1020.93 1020.84 1020.94 1020.97 1020.92 1020.72 1020.55 1020.16 1019.72 1019.26 1018.85 1018.59 1018.38 1018.26 1018.23
1017.60 1017.58 1017.77 1017.99 1018.21 1018.42 1018.49 1018.57 1018.76 1019.04 1019.28 1019.57 1019.95 1020.20 1020.36 1020.71 1020.86 1020.87 1020.85 1020.82 1020.88 1020.90 1021.11 1021.09 1021.34 1021.47 1021.51 1021.34 1021.25 1021.23 1021.23 1021.10 1020.96 1020.77 1020.60 1020.22 1019.88 1019.51 1019.19 1018.90 1018.61 1018.48 1018.46
1017.09 1017.17 1017.29 1017.69 1018.02 1018.30 1018.36 1018.67 1019.01 1019.21 1019.42 1019.67 1019.99 1020.10 1020.42 1020.65 1020.81 1020.98 1021.06 1021.15 1021.35 1021.41 1021.44 1021.34 1021.57 1021.55 1021.59 1021.57 1021.63 1021.41 1021.41 1021.19 1021.20 1020.89 1020.68 1020.44 1020.00 1019.74 1019.48 1019.13 1018.88 1018.74 1018.51
1015.90 1016.67 1016.87 1017.19 1017.62 1018.05 1018.27 1018.83 1019.15 1019.30 1019.53 1019.68 1019.88 1020.11 1020.42 1020.66 1020.79 1021.05 1021.37 1021.61 1021.81 1021.90 1021.97 1021.83 1021.89 1021.79 1021.77 1021.69 1021.67 1021.60 1021.51 1021.38 1021.30 1021.08 1020.92 1020.59 1020.26 1019.88 1019.57 1019.20 1018.93 1018.76 1018.64
1015.27 1015.57 1016.26 1016.76 1017.35 1017.87 1018.25 1018.69 1019.01 1019.23 1019.49 1019.78 1019.89 1020.14 1020.61 1020.97 1021.13 1021.40 1021.61 1021.77 1021.94 1022.06 1022.24 1022.17 1022.15 1021.90 1021.81 1021.79 1021.66 1021.72 1021.54 1021.43 1021.25 1021.17 1020.97 1020.68 1020.29 1019.99 1019.62 1019.25 1018.97 1018.77 1018.65
1014.69 1014.96 1015.40 1016.11 1016.65 1017.20 1017.89 1018.36 1018.78 1019.04 1019.29 1019.55 1019.94 1020.19 1020.40 1020.76 1021.04 1021.19 1021.45 1021.70 1021.93 1022.04 1022.15 1022.17 1022.19 1022.05 1021.94 1021.86 1021.77 1021.66 1021.64 1021.46 1021.43 1021.28 1020.82 1020.58 1020.31 1020.00 1019.65 1019.28 1019.11 1018.79 1018.71
1013.48 1013.96 1014.69 1015.36 1015.98 1016.59 1017.20 1017.76 1018.22 1018.69 1019.13 1019.57 1019.91 1020.09 1020.30 1020.47 1020.74 1020.97 1021.36 1021.68 1021.93 1022.07 1022.11 1022.08 1022.06 1022.06 1022.08 1021.91 1021.79 1021.69 1021.70 1021.53 1021.40 1021.18 1020.95 1020.75 1020.39 1020.09 1019.77 1019.29 1019.15 1018.90 1018.76
1011.66 1012.67 1013.49 1014.28 1015.14 1015.89 1016.55 1017.14 1017.73 1018.23 1018.70 1019.18 1019.52 1019.83 1020.12 1020.24 1020.34 1020.64 1021.12 1021.57 1021.77 1021.90 1021.86 1022.13 1022.00 1022.02 1022.07 1021.95 1022.01 1021.69 1021.58 1021.34 1021.33 1021.04 1020.89 1020.75 1020.37 1020.04 1019.63 1019.27 1019.12 1018.95 1018.88
1011.02 1011.44 1012.17 1013.10 1014.02 1014.87 1015.60 1016.35 1017.09 1017.72 1018.30 1018.77 1019.13 1019.52 1019.68 1019.83 1019.98 1020.51 1020.92 1021.43 1021.57 1021.81 1021.94 1021.91 1021.90 1022.11 1022.09 1022.20 1022.03 1021.74 1021.63 1021.19 1021.23 1020.85 1020.93 1020.79 1020.50 1020.13 1019.72 1019.43 1019.32 1019.30 1018.78
1009.35 1010.37 1011.27 1011.96 1012.84 1013.87 1014.94 1015.78 1016.61 1017.33 1017.93 1018.35 1018.81 1019.26 1019.60 1019.87 1020.00 1020.33 1020.86 1021.20 1021.36 1021.51 1021.60 1021.67 1022.11 1022.23 1022.36 1022.33 1022.22 1021.73 1021.33 1021.29 1021.26 1020.97 1020.90 1020.73 1020.41 1020.18 1019.89 1019.68 1019.49 1019.36 1019.01
1008.42 1009.08 1010.05 1011.07 1012.13 1013.30 1014.56 1015.78 1016.66 1017.21 1017.72 1018.04 1018.56 1018.98 1019.34 1019.59 1019.81 1020.23 1020.65 1020.98 1021.18 1021.48 1021.68 1021.78 1022.07 1022.34 1022.67 1022.62 1022.26 1021.81 1021.43 1021.27 1021.10 1021.05 1020.83 1020.76 1020.71 1020.27 1020.03 1020.00 1020.14 1020.13 1019.72
1007.79 1008.57 1009.32 1010.32 1011.31 1012.44 1013.71 1014.90 1016.19 1016.65 1017.33 1017.85 1018.16 1018.31 1018.75 1019.13 1019.50 1019.96 1020.40 1020.74 1021.10 1021.35 1021.56 1021.82 1022.17 1022.65 1022.92 1022.59 1022.35 1021.96 1021.63 1021.31 1021.22 1021.09 1021.14 1021.17 1020.85 1020.45 1020.27 1020.19 1020.26 1020.13 1020.01
1006.63 1007.47 1008.44 1009.27 1010.18 1011.08 1012.24 1013.52 1014.70 1015.68 1016.62 1017.04 1017.60 1018.01 1018.37 1018.85 1019.26 1019.61 1019.97 1020.42 1020.87 1021.35 1021.64 1021.87 1022.06 1022.70 1023.09 1023.05 1023.31 1023.57 1023.06 1021.97 1021.40 1021.05 1021.16 1021.03 1020.89 1020.64 1020.73 1020.60 1020.65 1020.56 1020.58
1006.28 1006.71 1007.48 1008.48 1009.43 1010.39 1011.59 1013.08 1014.44 1015.67 1016.63 1017.23 1017.52 1017.90 1018.15 1018.61 1018.99 1019.19 1019.57 1020.07 1020.61 1020.91 1021.38 1021.81 1022.02 1022.15 1023.02 1023.51 1023.39 1023.77 1023.88 1024.04 1023.46 1021.73 1021.13 1020.86 1020.77 1020.88 1021.12 1021.20 1021.08 1020.76 1020.48
1005.47 1006.49 1007.25 1008.22 1009.21 1010.17 1011.16 1012.31 1013.11 1013.55 1014.80 1015.37 1015.99 1017.01 1017.66 1018.16 1018.50 1018.76 1019.07 1019.70 1020.31 1020.83 1021.23 1021.43 1021.60 1021.62 1022.15 1023.35 1023.65 1023.76 1023.96 1024.28 1024.13 1022.92 1021.59 1021.09 1021.29 1021.29 1021.23 1021.09 1020.99 1020.80 1020.56
1005.18 1006.06 1006.97 1007.79 1008.76 1009.70 1010.64 1011.46 1012.53 1013.43 1014.09 1014.64 1015.58 1016.65 1017.52 1018.09 1018.41 1018.80 1019.25 1019.73 1020.11 1020.57 1020.99 1021.30 1021.53 1021.31 1021.62 1022.58 1023.26 1023.88 1024.30 1024.42 1024.43 1024.80 1023.51 1021.45 1021.20 1021.33 1021.23 1021.17 1021.33 1020.83 1020.48
1005.33 1006.07 1006.75 1007.72 1008.54 1009.30 1010.13 1010.98 1011.72 1012.37 1013.18 1014.19 1014.93 1015.76 1016.57 1017.32 1017.95 1018.33 1018.91 1019.60 1020.15 1020.52 1020.79 1021.27 1021.53 1021.43 1021.51 1022.11 1022.84 1023.37 1023.87 1024.39 1024.54 1024.88 1024.77 1024.13 1023.66 1021.13 1020.64 1020.48 1020.50 1020.20 1019.90
Wind_Speed
5 6 8 10 9 11 10 10 10 11 12 11 11 13 13 11 11 11 11 10 10 11 12 14 13 13 12 10 9 8 7 8 9 9 10 11 8 5 1 2 3 3 5
8 6 9 10 11 11 13 13 13 12 13 13 11 12 12 11 11 10 10 10 12 12 13 12 13 12 12 11 9 6 7 8 8 9 10 9 10 7 2 4 2 2 4
9 7 6 10 12 10 10 14 12 13 13 14 13 11 12 9 11 12 11 12 13 12 12 13 11 11 11 12 12 12 11 10 9 8 9 5 5 7 6 4 3 6 9
9 7 7 11 12 10 8 7 8 7 8 8 10 11 9 9 11 12 11 10 9 9 10 11 10 11 11 11 12 13 12 12 13 12 5 5 6 6 2 5 7 9 10
7 6 7 11 14 12 10 8 9 8 9 11 12 9 9 9 10 10 10 10 10 10 11 10 11 11 11 11 12 12 13 14 15 10 7 5 5 8 4 4 4 4 5
8 7 9 13 14 14 14 14 13 12 12 12 12 12 12 11 10 10 10 11 10 10 10 10 11 11 12 12 12 12 13 15 14 8 8 9 8 13 13 1 2 3 4
7 7 7 13 14 15 15 16 15 15 15 14 14 13 12 12 11 10 10 10 10 11 11 10 11 11 10 11 12 13 14 14 7 7 6 8 9 17 15 8 2 2 3
10 7 6 10 13 15 16 17 16 16 15 14 14 14 13 13 12 10 10 10 10 9 10 10 11 12 12 12 13 14 15 15 9 6 6 5 12 15 13 12 3 2 1
8 7 6 6 8 11 12 13 14 15 15 14 13 14 14 13 11 10 10 10 10 10 11 11 12 12 11 12 12 14 14 14 7 5 7 5 17 14 13 14 15 8 4
7 7 7 6 5 5 6 11 12 14 15 15 15 14 13 13 12 11 8 9 10 11 11 12 12 11 11 12 13 14 14 12 6 6 5 6 17 16 15 15 15 14 15
7 10 8 8 7 6 5 6 11 14 14 14 13 10 9 5 6 6 8 11 10 11 10 11 10 11 10 11 12 12 10 4 5 4 3 16 17 16 15 15 15 15 15
13 10 11 9 8 7 6 6 6 6 5 6 6 6 5 5 5 5 7 10 10 9 10 10 10 10 8 4 3 7 3 5 4 4 3 14 15 15 14 14 14 14 16
14 9 13 12 10 9 7 4 3 3 4 4 7 6 5 4 4 4 3 3 3 6 3 5 5 4 5 4 4 4 4 4 3 3 6 14 15 14 14 13 13 14 14
14 15 13 12 11 9 5 6 5 5 4 4 5 6 5 3 4 4 3 4 4 2 3 3 2 4 5 5 5 5 5 4 3 3 5 12 14 14 14 13 13 13 14
12 15 15 14 13 11 9 6 5 5 5 5 5 5 5 5 5 4 4 4 3 3 2 3 3 3 4 5 5 5 6 6 6 3 3 12 14 14 13 12 12 12 13
15 15 14 16 13 12 10 10 7 5 5 5 5 5 6 5 5 5 5 4 3 3 2 3 3 4 4 4 5 5 6 5 5 5 4 5 12 11 11 12 12 13 13
17 14 17 17 14 15 13 10 7 7 7 6 5 6 7 6 6 6 5 4 4 4 4 2 3 3 4 4 5 5 4 5 5 6 5 5 6 12 12 12 13 13 13
14 18 17 16 17 16 14 11 8 7 7 6 5 5 8 7 7 6 5 4 4 3 3 3 3 3 4 4 4 4 5 4 5 5 4 4 4 4 8 13 13 14 15
19 17 18 18 20 17 12 10 8 8 7 7 6 5 6 6 7 6 5 5 5 4 3 2 3 2 3 4 4 5 5 4 5 4 5 6 6 5 4 9 11 12 13
16 17 17 15 17 15 10 6 4 6 5 6 6 6 7 6 7 6 5 5 4 4 3 2 2 3 2 2 4 5 5 4 4 3 4 5 5 4 5 6 5 5 14
12 15 18 19 18 15 11 10 7 10 7 5 6 8 8 7 7 7 5 5 5 5 4 3 3 3 3 4 3 4 4 4 2 2 2 3 4 5 6 5 4 4 6
17 17 18 19 20 17 13 10 6 7 3 5 6 8 8 9 7 7 7 6 6 4 4 3 3 3 2 4 3 1 5 6 4 5 2 3 4 4 6 8 9 7 6
15 18 20 20 20 17 14 9 5 6 4 3 5 5 7 8 8 7 7 6 6 5 5 4 4 6 4 1 3 3 2 2 4 4 5 4 7 5 4 7 6 5 5
15 13 16 17 18 15 16 14 13 12 10 7 8 5 6 9 9 8 8 7 6 4 6 5 4 4 5 4 2 3 2 2 3 6 3 4 4 7 8 4 6 5 8
11 14 14 15 16 14 16 16 12 10 7 4 4 9 8 6 7 7 7 7 7 5 5 6 5 6 4 5 4 2 2 0 2 3 7 8 8 3 7 3 4 8 7
8 11 13 15 15 15 16 15 17 17 10 9 9 11 9 7 7 8 7 6 6 5 6 5 5 6 5 5 4 4 4 2 2 1 3 4 10 10 7 7 6 4 4
Wind_Direction
196 185 175 173 139 160 160 153 149 147 134 123 111 107 100 91 81 73 67 60 53 60 62 59 53 43 41 39 31 27 43 33 19 3 355 349 346 338 344 74 29 15 19
149 170 166 150 147 137 138 131 135 138 134 125 116 105 96 90 90 79 64 51 50 52 54 56 50 37 33 28 26 35 34 36 18 359 350 352 346 326 148 96 57 358 10
150 152 153 155 157 158 145 140 138 137 133 122 105 93 89 80 75 77 60 43 38 40 48 50 45 34 24 15 22 27 24 21 6 352 346 349 339 47 74 76 30 39 28
149 149 156 164 167 156 128 117 129 115 121 123 110 99 102 106 87 81 71 63 53 48 48 48 37 31 25 20 11 11 7 3 357 347 346 347 333 332 81 63 36 29 26
146 152 162 168 166 159 146 141 139 125 113 104 103 124 116 103 102 96 89 78 66 60 59 47 36 29 24 20 12 12 7 0 353 358 339 334 332 323 352 97 79 57 36
151 153 162 167 160 156 153 153 160 160 132 122 131 124 115 109 99 91 86 79 71 65 57 48 41 34 25 18 12 14 6 359 357 347 341 333 336 335 328 165 97 45 18
151 156 160 167 162 159 156 152 156 149 145 141 136 130 126 116 104 96 89 82 75 68 60 55 47 41 36 32 29 22 13 4 2 345 331 328 329 331 319 314 161 100 27
151 158 166 168 167 164 161 158 157 152 149 147 144 136 130 124 115 108 100 89 87 85 75 66 56 51 45 43 41 30 24 26 11 354 334 334 345 340 342 327 210 206 309
153 151 158 163 169 168 162 161 159 158 155 153 147 138 130 125 119 114 107 100 103 91 80 72 68 53 50 44 36 32 26 22 17 0 359 353 351 346 344 341 352 338 313
163 165 167 164 153 154 160 161 161 160 160 157 151 145 140 132 121 118 101 96 96 82 77 74 69 59 49 41 35 29 23 19 7 3 355 354 355 352 348 345 342 339 338
191 181 175 172 169 168 163 166 161 162 161 160 155 152 128 136 129 113 105 96 90 85 79 76 69 61 57 45 36 28 21 9 7 3 351 356 353 348 344 341 340 335 328
198 195 182 177 176 169 174 168 159 159 155 151 157 153 146 142 137 120 93 91 82 73 73 69 61 53 45 42 21 25 13 6 358 350 350 353 353 344 339 338 334 328 325
198 189 190 181 179 174 176 166 169 161 161 166 166 162 159 143 125 116 100 91 83 63 44 48 40 41 35 31 22 11 3 1 349 335 339 347 345 340 336 336 334 331 327
190 193 185 184 179 181 158 175 175 169 169 173 178 168 148 145 134 130 123 117 96 83 81 66 47 45 38 24 27 5 359 351 340 325 323 336 340 337 334 336 337 333 331
200 196 191 181 181 180 175 172 173 178 175 173 172 175 160 158 152 142 131 124 121 120 118 88 75 54 39 15 13 9 349 339 327 318 316 324 335 337 338 341 339 343 341
203 199 185 188 183 175 180 179 182 169 167 166 173 182 176 158 153 146 138 136 131 140 136 99 77 54 34 15 3 357 334 321 315 314 312 315 322 332 339 345 347 350 347
204 189 188 184 178 179 182 179 173 175 167 173 174 176 171 166 167 147 145 149 161 164 126 117 78 67 46 13 352 335 318 309 308 314 319 308 316 323 336 347 346 347 351
193 189 184 185 182 182 181 176 175 172 168 172 169 172 177 170 156 152 145 157 155 134 135 105 66 56 36 9 336 315 304 307 304 316 313 313 313 315 333 335 334 338 351
196 187 186 183 182 181 173 171 165 164 169 176 168 171 171 168 162 143 151 158 157 140 111 106 70 78 28 352 320 307 307 302 308 320 325 319 316 328 329 332 343 354 6
197 189 183 180 175 169 158 138 136 159 169 169 173 173 171 172 165 154 153 157 149 134 128 113 116 65 49 342 310 310 300 300 307 321 325 325 324 5 5 19 14 342 349
189 180 177 170 172 163 165 165 169 186 182 176 177 176 174 174 169 161 158 155 160 155 164 155 112 89 42 341 5 337 326 327 93 285 252 290 340 22 20 15 9 3 0
189 184 175 177 172 176 173 174 173 164 171 173 177 180 179 177 174 165 162 164 164 148 146 148 147 117 85 11 75 25 355 337 331 340 331 346 38 24 9 17 7 355 342
184 183 178 178 174 175 168 143 103 90 80 135 187 183 189 177 175 168 168 161 165 152 160 175 170 144 136 81 53 126 356 294 313 316 334 6 358 6 7 345 323 322 323
193 177 173 170 172 173 165 169 171 186 183 195 186 175 177 179 182 177 169 163 164 160 165 176 183 143 125 131 76 79 117 143 343 320 305 343 11 344 323 321 322 311 321
165 171 169 165 171 170 172 179 178 189 185 144 137 162 180 183 182 177 171 167 169 169 168 167 170 151 131 133 136 127 60 33 192 221 310 317 317 337 300 289 305 294 296
146 160 163 169 175 168 177 181 187 194 176 166 170 180 183 181 183 184 175 170 170 166 168 172 176 155 132 121 137 150 161 169 178 182 273 278 284 317 321 304 285 288 318